Skip Page Navigation
NASA JPL Caltech
NASA Logo - Jet Propulsion Laboratory + View the NASA Portal
+ Near-Earth Object (NEO) Program
Search JPL
JPL Home Earth Solar System Stars & Galaxies Technology
JPL Solar System Dynamics
BODIES ORBITS EPHEMERIDES TOOLS PHYSICAL DATA DISCOVERY FAQ SITE MAP
JPL Small-Body Database Browser
Search: [ help ]  
(2006 KL21)
Classification: Amor [NEO, PHA]          SPK-ID: 3333738
Ephemeris | Orbit Diagram | Orbital Elements | Physical Parameters | Close-Approach Data ]

[ hide orbit diagram ]
Orbit Diagram
Note: Make sure you have Java enabled on your browser to see the applet. This applet is provided as a 3D orbit visualization tool. The applet was implemented using 2-body methods, and hence should not be used for determining accurate long-term trajectories (over several years or decades) or planetary encounter circumstances. For accurate long-term ephemerides, please instead use our Horizons system.
Orbit Viewer

Additional Notes: the orbits shown in the applet are color coded. The planets are white lines, and the asteroid/comet is a blue line. The bright white line indicates the portion of the orbit that is above the ecliptic plane, and the darker portion is below the ecliptic plane. Likewise for the asteroid/comet orbit, the light blue indicates the portion above the ecliptic plane, and the dark blue the portion below the ecliptic plane.

Orbit Viewer applet originally written and kindly provided by Osamu Ajiki (AstroArts), and further modified by Ron Baalke (JPL).


Orbital Elements at Epoch 2456400.5 (2013-Apr-18.0) TDB
Reference: JPL 36 (heliocentric ecliptic J2000)
 Element Value Uncertainty (1-sigma)   Units 
e .1274243068182458 9.0755e-08  
a 1.199194867220914 1.684e-08 AU
q 1.04638829252529 1.0489e-07 AU
i 9.354695632453845 9.9588e-06 deg
node 117.2355134502296 3.0182e-05 deg
peri 214.1876219491111 7.0187e-05 deg
M 9.261725525462612 4.4008e-05 deg
tp 2456388.159792171721
(2013-Apr-05.65979217)
5.8829e-05 JED
period 479.6595198127183
1.31
1.0104e-05
2.766e-08
d
yr
n .7505323779262444 1.5809e-08 deg/d
Q 1.352001441916537 1.8986e-08 AU
  Orbit Determination Parameters
   # obs. used (total)      133  
   data-arc span      1624 days (4.45 yr)  
   first obs. used      2006-05-23  
   last obs. used      2010-11-02  
   planetary ephem.      DE405  
   SB-pert. ephem.      SB405-CPV-2  
   condition code      0  
   fit RMS      .57022  
   data source      ORB  
   producer      Otto Matic  
   solution date      2011-Sep-14 20:09:56  

Additional Information
 Earth MOID = .0485285 AU 
 T_jup = 5.279 
[ show covariance matrix ]

Ephemeris | Orbit Diagram | Orbital Elements | Physical Parameters | Close-Approach Data ]

Physical Parameter Table
Parameter Symbol Value Units Sigma Reference Notes
absolute magnitude H 20.826 mag .53244 36 autocmod 2.5a

[ show close-approach data ]
Ephemeris | Orbit Diagram | Orbital Elements | Physical Parameters | Close-Approach Data ]
ABOUT SSD CREDITS/AWARDS PRIVACY/COPYRIGHT GLOSSARY LINKS
FirstGov 2013-May-20 20:29 UT
(server date/time)  
NASA Home Page
Site Manager:   Donald K. Yeomans
Webmaster  Alan B. Chamberlin